Location: Oroua River
(40.4333°S, 175.4333°E)
Time: 14:16:26
(UTC+00:00)

Cosmos 1674 - Pass Details

Date: 03 February 2023
Orbit: 476 x 495 km, 82.5° (Epoch: 30 March)

Event Time Altitude Azimuth Distance (km) Brightness Sun altitude
Exits shadow 14:26:07 32° 121° (ESE) 880 4.3 -27.2°
Drops below altitude 10° 14:28:41 10° 156° (SSE) 1,710 6.3 -27.0°
Sets 14:30:55 0° 164° (SSE) 2,607 7.4 -26.7°
